Baton Rouge, LA

5:16 AM CST on December 16, 2019 (GMT -0600)
Baton Rouge Metro-Ryan

Weather History for KBTR - August, 2019

Change the Weather History Date:

Wednesday, August 28, 2019

  Actual Average Record
Temperature  
Mean Temperature 84 °F 82 °F  
Max Temperature 95 °F 92 °F 100 °F (1998)
Min Temperature 73 °F 73 °F 61 °F (1968)
Degree Days  
Heating Degree Days 0 0  
Month to date heating degree days 0 0  
Since 1 June heating degree days 0 0  
Since 1 July heating degree days 0 0  
Cooling Degree Days 19 17  
Month to date cooling degree days 548 503  
Year to date cooling degree days 2282 2108  
Since 1 June cooling degree days 1611 1543  
Growing Degree Days 33 (Base 50)    
Moisture  
Dew Point 74 °F    
Average Humidity 75    
Maximum Humidity 97    
Minimum Humidity 52    
Precipitation  
Precipitation 0.90 in 0.17 in 1.90 in (1920)
Month to date precipitation 7.79 5.30  
Year to date precipitation 49.21 41.19  
Snow  
Snow 0.00 in - - ()
Month to date snowfall 0.0  
Since 1 June snowfall 0.0  
Since 1 July snowfall 0.0  
Snow Depth 0.00 in    
Sea Level Pressure  
Sea Level Pressure 30.00 in    
Wind  
Wind Speed 6 mph (WNW)    
Max Wind Speed 23 mph    
Max Gust Speed 30 mph    
Visibility 8 miles    
Events Fog , Rain , Thunderstorm    
T = Trace of Precipitation, MM = Missing Value Source: NWS Daily Summary

Daily Weather History Graph

Daily Weather History Graph

Search for Another Location

Airport or City:

Astronomy

Aug. 28, 2019 Rise Set
Actual Time 6:38 AM CDT 7:32 PM CDT
Civil Twilight 6:14 AM CDT 7:57 PM CDT
Nautical Twilight 5:44 AM CDT 8:26 PM CDT
Astronomical Twilight 5:15 AM CDT 8:55 PM CDT
Moon 4:24 AM CDT (8/28) 6:34 PM CDT (8/28)
Length of Visible Light 13h 42m
Length of Day
12h 53m
Waning Crescent, 4% of the Moon is Illuminated
Aug 28
Waning Crescent
Aug 30
New
Sep 5
First Quarter
Sep 13
Full
Sep 21
Last Quarter

Hourly Weather History & Observations

Time (CDT) Temp. Heat Index Dew Point Humidity Pressure Visibility Wind Dir Wind Speed Gust Speed Precip Events Conditions
12:53 AM 81.0 °F 87.3 °F 75.9 °F 85% 29.98 in 10.0 mi North 3.5 mph - N/A   Partly Cloudy
1:53 AM 79.0 °F - 75.9 °F 90% 29.97 in 10.0 mi Calm Calm - N/A   Clear
2:53 AM 79.0 °F - 75.9 °F 90% 29.97 in 10.0 mi WSW 3.5 mph - N/A   Scattered Clouds
3:53 AM 80.1 °F 85.4 °F 75.9 °F 87% 29.98 in 10.0 mi Calm Calm - N/A   Clear
4:53 AM 78.1 °F - 75.9 °F 93% 29.98 in 10.0 mi WSW 4.6 mph - N/A   Clear
5:53 AM 79.0 °F - 77.0 °F 94% 29.99 in 10.0 mi West 6.9 mph - N/A   Clear
6:53 AM 79.0 °F - 77.0 °F 94% 30.01 in 9.0 mi WNW 3.5 mph - N/A   Clear
7:53 AM 81.0 °F 87.9 °F 77.0 °F 88% 30.02 in 10.0 mi WNW 4.6 mph - N/A   Clear
8:53 AM 84.0 °F 93.7 °F 77.0 °F 79% 30.03 in 10.0 mi WNW 4.6 mph - N/A   Scattered Clouds
9:53 AM 87.1 °F 97.3 °F 75.9 °F 69% 30.03 in 10.0 mi Variable 5.8 mph - N/A   Clear
10:53 AM 88.0 °F 98.5 °F 75.9 °F 67% 30.03 in 10.0 mi NW 4.6 mph - N/A   Scattered Clouds
11:53 AM 90.0 °F 102.5 °F 77.0 °F 65% 30.02 in 10.0 mi NW 6.9 mph - N/A   Partly Cloudy
12:53 PM 91.9 °F 101.3 °F 73.9 °F 55% 30.01 in 10.0 mi North - - N/A   Mostly Cloudy
1:53 PM 93.0 °F 103.2 °F 73.9 °F 54% 29.99 in 10.0 mi WNW 8.1 mph - N/A   Mostly Cloudy
2:22 PM 89.1 °F 99.1 °F 75.0 °F 63% 29.99 in 10.0 mi NNW 10.4 mph - N/A Thunderstorm Scattered Clouds
2:53 PM 93.9 °F 100.8 °F 71.1 °F 47% 29.98 in 10.0 mi North 5.8 mph - N/A   Clear
4:53 PM 91.0 °F 102.9 °F 75.9 °F 61% 29.94 in 10.0 mi NNE 10.4 mph - N/A Thunderstorm Thunderstorm
5:53 PM 81.0 °F 85.2 °F 72.0 °F 74% 29.96 in 9.0 mi SE 8.1 mph - 0.00 in Rain , Thunderstorm Thunderstorms and Rain
6:53 PM 78.1 °F - 70.0 °F 76% 29.99 in 6.0 mi South 17.3 mph 25.3 mph 0.01 in Thunderstorm Unknown
7:44 PM 73.9 °F - 70.0 °F 87% 30.05 in 0.5 mi SSE 17.3 mph 23.0 mph 0.03 in Fog , Rain , Thunderstorm Heavy Thunderstorms and Rain
7:53 PM 73.0 °F - 70.0 °F 90% 30.03 in 1.0 mi South 19.6 mph 29.9 mph 0.18 in Rain , Thunderstorm Heavy Thunderstorms and Rain
7:57 PM 73.0 °F - 70.0 °F 90% 30.03 in 3.0 mi South 15.0 mph 29.9 mph 0.00 in Rain , Thunderstorm Heavy Thunderstorms and Rain
8:53 PM 73.0 °F - 71.1 °F 93% 30.03 in 3.0 mi NNE 9.2 mph - 0.67 in Rain , Thunderstorm Heavy Thunderstorms and Rain
9:53 PM 73.0 °F - 70.0 °F 90% 30.01 in 10.0 mi NNW 5.8 mph - 0.04 in Thunderstorm Clear
11:53 PM 73.9 °F - 71.1 °F 91% 30.00 in 10.0 mi Calm Calm - N/A   Clear